Theta_e
333 332 332 332 332 334 335 336 336 336 336 337 338 337 337 336 336 336 337 337 337 337 338 337 337 338 338 338 338 338 338 337 336 336 336 335 335 335 334 334 334 334 335 336 336 336 336 336 336 336 337 337 336 336 336 336 335 335 336 335 335 334 334 333 333 333 333 333 332 332 332 332 332 332 332 331 331 331 331 330 330 329 329 328 325
331 331 330 330 330 331 332 333 333 333 332 335 335 334 334 334 334 334 335 336 336 336 337 337 337 337 338 338 338 338 337 336 336 335 335 334 334 334 334 334 334 334 335 335 335 335 336 336 337 337 337 336 336 335 335 335 334 334 335 335 334 335 334 334 333 333 333 332 331 331 331 331 331 331 331 331 331 331 331 330 330 329 329 329 327
330 329 329 329 329 329 329 329 330 329 329 331 331 331 331 331 330 331 332 333 334 334 335 336 336 336 337 337 337 336 335 335 335 334 334 334 334 334 333 334 334 335 335 334 334 334 334 335 336 336 337 337 336 335 335 335 334 334 334 334 334 334 333 333 334 334 333 332 330 330 331 332 331 330 329 330 330 330 330 330 330 330 329 330 328
330 329 328 328 328 327 327 326 327 327 328 328 329 330 329 329 329 329 330 330 331 332 333 334 335 336 336 336 336 335 334 334 334 333 333 333 333 333 333 333 333 334 334 334 334 334 334 335 335 335 335 336 336 335 335 335 334 334 334 333 333 333 333 333 334 334 334 334 331 330 330 331 333 331 328 329 330 330 330 329 329 329 329 329 329
328 328 327 326 326 326 325 325 325 325 325 325 326 327 327 327 328 328 329 329 329 330 331 333 334 335 335 335 335 334 333 333 332 332 332 332 332 332 332 332 332 333 333 333 333 333 334 334 334 334 334 334 334 333 334 333 333 333 333 332 332 332 333 333 333 333 334 334 333 332 331 332 334 331 329 330 330 329 330 329 329 329 329 329 329
326 326 326 325 325 324 324 323 323 323 323 323 324 324 325 325 326 327 328 328 328 328 329 331 332 333 333 333 332 331 330 330 329 328 329 329 330 331 331 331 331 332 332 332 332 333 333 333 333 334 334 334 333 333 333 333 333 333 332 332 331 332 332 332 331 332 332 332 332 332 332 333 333 329 329 331 330 329 330 330 330 329 329 329 329
325 325 325 324 324 323 322 322 322 321 322 322 323 323 323 323 323 324 325 325 326 327 327 329 329 330 330 330 329 328 328 327 327 327 327 327 328 329 330 330 330 330 331 331 332 332 332 332 333 333 333 334 334 333 333 333 333 333 332 332 331 331 331 331 331 331 331 330 331 331 331 332 332 329 329 331 331 330 329 329 330 330 330 329 329
325 324 324 323 323 322 321 321 321 321 321 322 322 322 322 321 321 322 322 323 324 324 325 327 328 328 328 328 328 327 327 326 326 327 327 327 328 328 328 329 328 329 329 329 330 330 331 331 331 332 332 333 333 333 333 333 333 333 332 332 332 332 332 331 331 331 330 330 330 331 331 331 331 330 329 329 330 331 330 330 330 330 330 330 330
324 324 323 322 322 321 320 320 320 321 321 321 320 321 321 320 320 320 320 321 322 322 323 324 325 325 326 326 326 325 325 324 324 325 326 327 327 327 328 328 327 327 327 328 328 329 329 330 330 330 331 332 332 333 332 332 332 332 332 332 333 332 332 332 332 331 331 330 330 329 330 330 330 330 329 328 328 329 331 330 330 330 330 330 330
323 323 322 321 320 320 319 319 320 320 320 320 320 320 319 319 319 319 318 319 320 320 321 322 323 323 323 323 323 323 323 322 323 323 324 325 325 326 326 326 325 325 326 326 326 327 328 328 329 329 329 330 330 330 330 331 331 331 331 332 332 332 332 332 332 331 330 330 330 329 329 329 329 329 329 329 328 328 329 329 329 330 330 330 330
322 321 321 320 319 318 318 318 319 319 319 319 319 319 318 318 318 317 317 317 318 318 319 320 320 321 321 321 321 320 320 320 321 321 321 322 322 323 323 323 323 324 325 325 325 325 326 327 327 328 328 328 328 328 328 328 329 329 328 329 330 330 331 332 331 331 330 330 329 329 329 329 329 329 329 329 328 328 329 328 328 329 329 329 329
321 320 319 319 319 318 318 318 318 318 318 318 318 318 317 318 318 317 316 316 316 316 316 317 318 319 320 319 319 318 318 318 318 318 318 318 319 320 320 321 322 322 323 323 323 323 324 325 326 326 326 326 326 326 326 326 326 326 326 326 327 328 330 331 331 330 329 329 329 329 329 329 329 329 329 329 329 329 329 328 328 328 329 329 329
319 319 319 318 318 318 317 317 317 317 317 318 317 317 317 318 318 317 316 315 314 314 315 316 317 317 317 317 317 316 316 316 316 316 315 315 315 317 318 318 319 320 321 320 320 321 322 322 322 322 322 322 323 324 324 324 324 324 324 324 324 325 327 328 329 329 328 327 328 328 328 329 329 329 329 328 329 328 328 329 328 327 328 328 329
318 318 318 318 318 317 317 317 317 317 317 317 317 316 316 317 317 316 315 314 314 313 313 314 314 315 315 315 315 315 314 314 315 314 313 313 313 314 315 315 316 317 318 317 317 317 318 318 318 319 319 319 320 321 322 322 322 323 324 324 324 324 324 325 326 327 327 328 328 328 328 329 329 329 329 328 328 328 328 328 328 327 327 327 329
318 317 317 317 317 317 317 317 316 316 317 317 316 315 316 317 317 316 315 314 314 313 313 313 313 313 313 313 313 313 313 312 312 312 311 311 312 313 313 313 314 314 315 315 315 314 314 315 316 316 317 318 318 319 319 319 320 321 322 323 324 325 325 325 326 326 326 327 327 327 328 329 329 329 329 329 329 328 328 328 328 328 328 328 328
318 317 317 317 317 317 317 316 316 316 316 316 315 315 316 316 316 315 315 314 314 313 313 313 312 312 312 312 312 311 310 310 309 309 309 309 310 311 311 311 312 312 312 313 313 313 312 312 313 313 315 315 316 317 317 317 317 318 320 321 323 324 325 325 326 326 326 327 326 327 327 328 328 328 329 329 329 329 328 328 327 327 328 329 328
317 317 317 317 316 315 315 315 315 315 315 314 314 315 316 316 316 315 315 314 314 314 313 312 311 310 310 311 311 310 309 308 307 307 307 307 308 308 309 309 310 310 310 311 312 311 310 310 310 311 312 313 314 315 314 315 316 317 318 320 320 321 322 324 325 326 327 327 327 328 328 327 328 328 328 328 328 329 329 328 327 327 327 329 329
317 316 316 315 314 313 313 314 315 315 314 314 314 315 315 315 315 315 314 314 313 312 312 310 310 309 309 309 309 309 308 307 306 306 306 306 306 306 306 307 307 308 309 309 310 309 308 307 308 309 309 310 311 311 312 313 315 316 317 318 319 319 320 321 323 325 325 326 327 327 328 328 328 328 328 328 328 328 328 328 328 327 327 327 329
316 315 314 313 313 312 312 313 314 314 313 313 313 313 313 313 313 313 312 312 312 312 311 310 309 308 308 308 308 308 307 307 306 305 305 305 305 305 305 305 305 306 307 307 307 307 305 305 306 307 307 308 308 309 310 311 313 314 315 316 317 318 319 320 321 323 324 325 326 326 327 328 328 328 328 328 328 328 328 328 328 327 327 327 327
314 314 313 312 312 312 311 312 312 312 313 313 312 312 311 311 311 311 311 311 311 311 310 309 308 307 307 307 307 307 307 306 306 305 305 304 304 304 304 304 304 304 305 305 305 304 303 302 303 303 304 305 305 306 307 308 309 311 312 312 314 315 316 318 320 321 322 323 324 325 326 327 328 328 328 328 328 328 328 328 328 327 327 327 326
313 313 312 311 311 311 310 311 311 311 312 312 311 311 310 310 310 310 310 310 309 309 309 308 307 306 306 306 306 306 306 306 306 305 305 304 304 303 303 303 303 303 303 303 303 302 302 301 300 300 300 300 302 302 303 305 307 308 309 310 311 311 312 314 316 318 320 321 321 323 325 326 327 327 328 328 328 328 327 327 327 327 326 326 326
312 312 311 310 310 309 309 310 311 311 311 311 310 310 310 309 309 309 308 308 308 308 308 307 306 306 306 306 306 306 306 306 306 305 305 304 304 303 302 302 302 301 301 301 301 301 301 300 298 298 298 298 299 299 299 301 302 304 305 306 306 306 307 310 311 314 316 317 318 320 323 325 325 326 327 327 327 327 327 327 327 327 327 326 326
311 310 309 309 309 308 308 309 310 310 310 310 310 309 309 308 308 308 307 307 307 307 307 306 306 306 306 305 305 305 305 305 305 305 305 304 304 302 301 300 300 300 300 300 300 300 299 299 298 298 298 298 298 298 298 298 298 299 300 302 304 304 305 307 309 310 312 314 315 317 320 323 325 326 326 326 326 327 327 327 327 327 327 327 327
310 309 308 307 307 307 308 308 308 309 309 309 309 308 308 308 307 307 306 305 305 305 306 306 305 305 305 305 305 304 304 304 304 304 304 304 304 302 300 299 299 299 299 299 299 298 298 298 297 297 297 297 297 297 297 297 297 297 298 301 303 304 306 307 308 310 311 312 313 316 319 322 324 325 326 326 326 326 326 326 326 327 328 328 327
309 309 308 307 307 306 307 307 308 308 308 308 307 307 307 307 307 306 305 304 304 304 304 304 304 304 304 304 303 302 302 301 302 302 303 304 304 302 301 300 299 298 298 298 298 298 297 297 297 297 297 296 297 297 297 297 297 298 300 302 303 304 305 307 308 309 310 311 313 314 317 320 323 325 326 326 326 326 326 326 326 326 326 327 327
309 309 308 307 306 306 306 307 307 308 308 307 307 307 307 307 307 306 305 304 304 304 303 303 303 303 303 303 302 301 301 300 300 300 301 301 302 301 301 300 298 298 298 297 297 297 297 297 296 296 296 296 296 296 297 297 297 298 300 302 303 303 304 305 306 307 308 309 309 311 313 315 317 320 322 324 326 326 326 326 325 326 326 326 326
308 308 308 308 306 305 306 306 307 307 307 307 307 307 307 307 306 306 305 304 304 304 304 304 303 303 303 303 303 302 301 300 299 299 299 299 299 300 299 299 298 297 297 297 297 297 297 296 296 296 296 296 296 296 296 297 297 297 298 300 300 301 302 303 304 305 306 305 305 307 310 310 311 313 315 317 319 322 324 326 326 326 326 325 325
308 308 308 309 308 305 305 306 306 306 306 306 305 306 306 305 305 305 305 305 304 304 304 304 303 302 302 302 303 302 301 300 299 299 299 298 299 299 299 298 298 297 297 297 297 297 297 296 296 296 296 296 296 296 296 296 297 297 297 297 298 299 300 300 302 303 303 303 303 304 306 306 307 310 311 312 313 315 318 322 325 326 326 325 325
308 308 309 310 308 305 304 305 305 305 305 304 304 304 304 303 303 303 303 304 304 303 303 302 301 300 300 300 302 302 301 300 299 298 298 298 298 298 298 298 297 297 297 296 296 296 296 296 296 296 296 296 295 295 295 296 296 296 296 296 297 298 298 299 300 300 301 301 301 301 303 303 305 309 311 312 313 313 313 316 319 323 325 325 325
308 308 309 308 305 304 304 304 304 304 304 304 303 303 303 302 302 302 302 301 302 301 300 299 298 298 299 299 300 301 301 300 299 298 298 298 298 298 298 298 297 297 297 296 296 295 295 295 296 296 296 296 295 295 295 295 296 296 296 296 296 297 297 297 298 298 299 299 299 300 301 302 304 308 309 311 312 313 313 314 316 319 321 323 325
307 307 308 305 302 303 304 304 304 304 303 303 303 303 302 302 302 301 301 300 300 299 298 297 297 297 298 298 299 300 300 300 299 299 298 297 298 298 298 298 297 297 296 296 295 295 295 295 295 295 295 295 295 295 296 295 295 296 296 296 296 296 297 296 297 297 297 298 298 298 299 300 302 304 305 307 309 311 313 314 316 318 320 321 323
306 306 307 305 302 303 303 303 303 303 303 303 302 302 302 302 301 301 300 300 299 298 298 297 297 296 297 297 297 298 298 298 297 297 296 296 297 298 297 296 295 294 294 294 294 293 293 294 294 295 295 295 295 295 296 295 295 295 296 296 295 296 296 296 296 296 296 296 297 297 298 298 299 300 301 303 306 308 311 312 314 318 321 322 322
306 306 306 304 302 303 303 303 303 303 303 302 302 302 302 301 301 301 300 299 299 298 298 298 297 296 296 296 296 296 296 295 295 295 296 297 297 296 294 294 293 293 293 292 292 292 292 293 293 294 294 294 295 295 296 296 295 295 295 295 295 295 295 295 296 295 295 295 296 296 297 297 298 299 299 300 302 305 308 310 312 316 319 322 323
306 305 304 303 303 303 303 303 303 303 303 302 302 302 301 301 301 300 300 299 299 298 298 298 297 296 296 296 295 295 295 295 295 295 296 296 296 295 294 294 293 292 292 292 292 292 292 292 293 293 294 294 294 295 296 296 295 295 295 295 295 294 294 294 295 295 295 295 295 295 296 296 296 297 297 298 299 302 304 307 309 312 316 319 322
306 305 303 302 303 303 303 302 302 303 303 302 302 301 301 301 300 300 299 299 299 298 298 298 297 296 296 296 295 295 295 295 295 295 295 295 295 294 294 294 293 293 293 292 292 292 292 292 293 293 294 294 295 295 296 296 296 295 295 295 294 294 294 294 294 295 295 295 294 295 295 295 294 294 295 296 297 299 302 304 306 308 312 316 319
304 303 302 302 303 303 303 302 302 302 302 302 301 301 301 301 300 299 299 299 299 299 298 298 298 297 296 296 296 295 295 295 295 295 295 295 294 294 294 294 294 293 293 292 292 292 292 292 293 293 294 294 295 296 296 296 296 295 295 294 294 294 293 293 293 294 294 294 294 294 294 294 293 293 294 295 296 298 300 302 302 304 308 312 316
303 303 303 303 303 303 302 302 302 302 302 302 301 301 301 300 300 299 299 299 299 298 298 298 298 297 296 296 296 296 295 295 295 295 295 294 294 294 294 294 293 293 293 292 292 292 292 292 293 293 293 294 295 295 296 296 296 295 295 294 294 293 293 293 293 293 293 293 293 294 294 293 292 292 294 295 296 297 298 299 299 300 304 308 313
302 303 303 302 302 302 302 302 302 301 302 302 301 301 300 300 300 299 299 299 298 299 299 299 298 298 297 296 296 296 295 295 295 295 295 294 294 294 294 293 293 293 293 292 292 292 292 292 293 293 293 294 295 295 296 296 296 295 295 294 294 293 292 292 292 293 293 293 293 293 293 293 292 292 293 295 295 296 297 297 297 298 300 303 308
302 302 302 302 302 302 302 302 301 301 301 302 301 301 300 300 300 299 299 299 299 299 299 299 299 298 297 296 296 296 295 295 295 295 295 295 294 294 294 294 293 293 293 292 292 292 292 292 293 293 293 294 295 295 296 296 296 296 295 294 294 293 292 292 292 292 292 292 292 292 293 292 292 292 293 294 295 295 295 295 295 296 297 300 304
302 302 302 302 302 302 301 301 301 300 301 301 302 301 300 300 300 299 299 299 299 299 299 299 299 298 298 297 296 296 296 295 295 295 295 295 295 294 294 294 294 293 293 292 292 292 292 292 292 292 293 293 294 295 296 297 296 296 295 294 294 293 292 292 291 291 291 291 291 292 292 292 292 293 293 293 294 295 295 294 295 294 295 298 303
302 302 302 301 302 302 301 301 301 300 300 301 301 301 300 300 300 299 299 299 299 299 299 299 299 299 298 297 296 296 296 295 295 295 295 295 295 294 294 294 294 294 293 293 292 292 292 292 291 292 292 292 293 294 296 297 296 296 295 295 294 294 293 292 291 291 291 290 291 291 291 291 292 293 293 293 294 295 295 295 295 295 297 300 305
302 302 301 301 301 301 301 301 301 300 300 300 300 301 300 300 299 299 299 299 300 299 299 299 299 299 298 298 297 296 296 296 295 295 295 295 295 295 294 294 294 294 293 293 292 292 292 292 291 292 292 292 293 294 296 297 297 296 295 295 294 294 293 292 291 291 290 290 290 291 291 291 291 292 293 293 293 294 295 294 295 297 300 303 306
301 301 301 301 301 301 300 300 300 300 300 299 300 300 300 300 299 299 299 300 300 299 299 299 299 298 298 298 297 297 297 296 296 295 295 295 295 295 295 294 294 294 293 293 292 292 292 292 291 292 292 292 293 294 295 296 296 296 295 295 294 294 293 292 292 291 291 290 291 291 291 291 291 292 293 293 293 294 294 294 295 297 299 302 304
301 301 301 301 301 301 300 300 300 300 300 299 300 300 300 300 299 299 299 299 299 299 299 299 299 299 298 298 298 298 297 297 296 296 295 295 295 295 295 294 294 294 293 293 292 292 292 292 291 291 292 292 293 294 295 295 296 296 296 295 294 293 293 292 292 291 291 291 290 291 291 291 291 292 292 293 293 294 294 294 294 295 297 299 300
301 301 301 301 301 301 300 300 300 300 300 299 299 299 299 299 299 299 299 299 298 299 299 299 299 299 299 299 299 298 298 298 297 297 296 296 295 295 295 295 294 294 294 293 293 292 292 292 291 291 291 292 292 293 294 295 295 295 296 295 294 293 293 292 292 291 291 291 291 291 291 291 291 291 291 292 292 293 294 294 294 294 295 295 297
301 301 301 301 301 300 300 300 300 300 299 299 299 299 299 298 298 298 299 299 299 299 299 299 299 299 299 299 299 299 298 298 297 297 297 296 296 295 295 295 294 294 294 293 293 293 292 292 292 291 291 291 291 292 293 294 294 294 295 295 294 293 293 292 291 291 291 291 291 291 291 291 291 291 291 291 291 292 293 294 295 294 294 293 293
301 301 301 301 300 300 300 300 299 299 299 299 299 299 298 298 298 298 299 299 299 299 299 298 299 299 299 299 298 298 298 298 297 297 297 296 296 295 295 295 295 294 294 293 293 293 292 292 292 292 292 291 291 291 293 293 293 294 294 295 294 293 293 292 291 291 291 291 291 291 291 291 291 291 291 291 291 291 292 292 293 293 293 293 293
300 300 301 301 300 300 300 300 299 299 299 299 299 299 299 298 299 299 299 299 299 299 299 299 298 298 298 298 298 297 297 297 297 297 296 296 296 295 295 295 295 295 294 293 293 293 293 292 292 292 292 291 291 291 292 293 293 293 294 295 294 294 293 292 292 292 291 291 291 291 291 291 291 291 291 291 291 291 291 291 291 292 293 293 294
300 300 301 300 300 300 300 300 300 299 299 299 299 299 299 299 299 299 299 298 299 299 299 299 298 298 297 297 297 297 297 297 297 296 296 296 295 295 295 295 295 295 294 293 293 293 293 293 292 292 292 291 291 292 293 293 293 293 294 294 294 294 294 293 293 292 292 291 291 291 291 291 291 291 291 291 290 291 291 291 291 291 292 292 293
299 300 300 300 300 300 300 300 299 299 299 299 299 299 299 299 298 298 298 298 299 299 299 299 298 298 298 297 297 297 297 297 296 296 296 296 296 295 295 295 295 295 295 294 293 293 293 293 293 293 292 291 291 292 292 293 293 293 293 293 294 294 294 294 293 293 292 292 291 291 291 290 291 291 290 290 290 290 290 291 291 291 291 291 291
299 299 299 300 300 300 300 300 300 299 299 299 299 299 299 298 298 299 299 299 298 298 298 299 299 298 298 298 297 297 297 297 296 296 296 296 296 295 295 295 295 295 295 294 294 293 293 293 293 293 292 292 291 291 291 292 292 292 292 293 294 294 293 293 293 293 293 292 291 291 291 290 290 290 290 290 291 290 290 290 290 291 291 291 291
Wind_Speed
15 17 17 19 19 19 21 20 20 18 16 14 13 13 13 12 11 9 7 4 3 3 2 2 4 5 5 6 7 7 8 8 8 9 8 9 8 6 7 7 6 5 5 7 8 9 10 12 14 15 16 16 16 17 17 17 17 17 17 17 18 18 19 18 16 16 16 16 17 18 19 19 20 21 21 20 21 22 22 23 23 23 24 24 26
14 16 16 19 19 19 20 20 21 20 19 18 17 16 16 16 15 13 11 8 7 6 5 5 5 6 7 7 7 8 9 10 10 10 10 9 9 7 8 8 5 4 3 4 6 8 10 12 14 15 16 16 16 17 17 17 17 17 17 19 19 18 19 19 17 13 10 11 11 10 13 15 17 19 22 23 23 23 24 26 27 26 27 28 28
11 12 13 18 18 19 19 19 20 19 19 19 18 17 17 17 16 14 13 12 10 9 8 7 7 7 7 6 7 8 10 12 12 13 13 12 12 11 11 10 8 6 5 4 5 6 8 10 12 13 14 15 15 15 15 16 16 16 17 18 18 18 19 20 19 15 13 12 8 4 5 6 8 12 19 24 25 25 26 28 28 28 28 28 29
11 10 11 15 17 18 18 19 19 18 19 18 17 16 15 15 14 14 13 13 12 11 10 8 6 6 7 6 7 8 9 10 11 13 15 14 14 14 14 13 12 10 8 7 7 7 7 9 10 11 12 12 13 15 16 17 17 17 17 16 17 18 18 19 19 18 18 15 6 2 2 2 3 6 12 19 23 25 27 29 30 30 30 29 29
11 10 9 11 15 17 17 19 19 19 19 18 17 16 14 13 12 11 11 11 11 11 10 8 6 6 6 6 8 9 10 12 13 15 16 15 16 16 16 16 15 13 12 11 10 10 10 10 11 11 11 12 13 15 17 18 18 18 18 17 17 18 18 19 19 19 19 18 13 7 3 2 3 2 5 10 16 23 27 30 32 33 33 32 31
10 10 9 9 13 17 18 19 19 18 18 17 17 16 15 13 11 10 10 10 11 11 10 9 8 8 8 9 11 12 13 14 15 16 16 16 16 15 15 16 16 14 14 13 12 12 11 12 12 12 13 13 14 16 16 17 18 18 18 18 18 19 20 20 20 20 20 20 21 19 15 13 9 3 1 4 8 18 23 27 30 32 33 33 33
10 9 8 9 13 14 16 18 19 17 16 15 15 16 15 13 12 11 11 10 10 10 9 8 9 9 10 11 12 13 14 14 13 13 14 14 14 14 14 14 15 14 14 13 13 13 12 12 13 13 13 14 14 14 15 16 17 18 18 18 19 19 20 19 21 22 20 19 22 24 25 26 24 14 7 5 4 8 16 22 27 29 31 32 33
10 7 6 10 12 12 13 17 17 16 15 15 14 14 13 12 12 12 12 12 11 10 8 8 8 8 9 9 10 12 13 13 12 12 12 13 13 13 14 13 14 14 14 14 13 13 13 12 12 12 12 13 13 14 15 16 17 18 18 19 20 19 20 21 22 21 19 19 20 22 24 27 29 25 20 14 6 4 7 13 20 27 30 30 30
10 7 7 12 12 11 14 17 16 14 13 13 13 13 12 11 11 11 13 13 11 10 9 8 8 8 8 8 8 9 10 10 11 12 13 14 15 15 15 14 15 14 14 14 14 13 13 13 13 13 14 13 13 14 16 17 18 19 19 19 20 20 20 21 23 22 21 22 22 21 22 22 24 26 26 21 12 7 6 4 10 18 22 28 31
9 7 9 13 12 12 14 15 13 11 11 12 12 12 12 11 12 13 14 13 11 10 9 8 8 8 9 9 8 9 9 9 11 12 13 15 16 16 16 16 17 16 15 15 15 14 13 14 14 14 14 14 14 15 16 17 18 19 20 20 21 22 22 22 23 24 24 26 25 23 22 20 17 16 18 19 14 11 9 6 7 11 12 21 30
8 7 9 14 12 12 13 12 10 10 11 13 13 12 12 12 14 16 16 14 12 10 8 8 8 8 9 9 10 10 10 10 11 13 13 14 14 15 15 16 17 17 16 16 16 15 14 14 14 14 14 15 15 16 16 17 18 19 20 20 21 22 23 24 25 25 25 26 27 26 26 23 19 15 15 17 13 9 8 6 9 13 13 17 25
7 6 8 11 11 11 12 11 9 9 11 13 13 13 13 13 14 15 15 13 13 11 9 8 9 9 10 11 11 11 11 12 13 13 13 13 12 12 12 13 14 15 15 17 18 17 16 15 16 16 16 16 17 18 18 18 18 19 20 20 21 22 24 25 26 25 24 25 26 27 27 27 26 24 23 22 18 16 13 6 8 13 13 14 20
7 6 6 7 8 9 9 10 9 9 11 14 15 14 13 11 11 12 12 12 13 14 12 11 11 12 12 13 13 13 12 12 13 13 12 12 11 10 10 11 11 12 14 17 18 17 17 17 17 18 18 18 18 19 19 20 20 20 20 21 21 22 23 25 26 26 26 27 28 28 29 30 30 29 28 27 24 23 17 9 10 14 10 10 15
6 6 6 6 8 9 9 9 8 9 11 14 16 15 13 11 11 12 12 11 13 16 16 16 15 14 14 14 14 13 13 13 12 12 12 11 12 11 11 11 12 13 14 15 15 15 16 17 17 18 18 19 19 19 19 19 19 19 19 21 22 22 23 24 26 27 29 29 28 29 30 30 30 29 29 29 27 23 18 13 11 11 11 9 11
5 5 6 7 9 9 9 9 9 10 13 14 16 15 12 12 13 12 12 11 13 15 17 18 17 16 15 14 15 14 14 13 12 12 11 12 13 12 12 12 12 13 12 12 13 13 15 18 18 18 18 19 19 19 19 19 18 18 17 18 20 21 23 24 25 26 27 28 28 29 31 31 30 29 29 29 27 24 23 23 16 8 7 7 7
5 5 6 7 9 9 9 10 11 13 14 14 16 15 14 15 15 13 12 11 12 13 14 16 17 17 16 16 17 17 16 16 15 15 15 14 14 13 13 13 12 12 12 12 12 12 15 19 18 18 18 18 18 19 20 20 21 20 20 20 19 20 21 23 25 27 27 28 28 29 31 32 31 30 31 30 29 27 27 28 24 14 8 5 5
5 4 5 7 8 9 11 13 14 14 14 15 17 17 18 17 15 13 11 10 11 13 14 16 17 18 18 17 18 18 19 19 19 19 19 18 18 17 16 15 14 14 13 13 12 12 17 20 19 19 19 19 19 19 20 21 22 22 22 22 22 21 22 22 24 25 27 28 28 29 30 31 30 30 30 30 29 29 29 29 28 25 17 7 4
5 5 7 8 10 12 14 15 15 15 15 17 20 21 20 18 16 14 13 13 14 15 16 17 18 19 18 17 17 18 20 20 21 21 22 22 22 21 21 20 18 17 15 14 13 14 19 22 22 23 23 22 22 23 23 23 23 23 23 23 23 23 24 23 22 23 24 26 28 29 29 29 29 29 29 29 28 28 29 30 30 30 26 16 8
6 6 6 8 11 13 16 17 17 17 19 20 22 22 22 20 18 18 18 17 17 17 17 17 18 18 19 18 18 19 20 21 21 23 24 24 24 23 23 22 22 20 18 17 16 17 22 25 26 26 26 26 26 26 26 26 25 24 24 23 23 24 25 25 24 23 23 25 27 28 28 27 28 29 28 27 28 29 29 29 29 30 30 26 18
6 7 6 8 12 13 17 19 18 19 21 22 22 22 22 21 20 20 20 19 18 18 18 18 17 18 19 19 20 20 21 21 21 23 25 26 25 24 24 22 22 22 20 19 18 20 24 27 28 29 29 29 29 28 28 28 26 25 24 24 23 23 24 25 25 24 24 24 25 26 27 27 27 28 27 26 26 28 28 27 28 29 28 27 25
7 7 7 9 12 15 17 19 19 20 22 23 23 22 21 20 20 20 20 19 19 19 18 17 17 18 20 21 20 20 21 21 21 23 25 26 26 26 25 24 24 24 22 20 20 20 23 26 29 31 32 32 32 31 31 31 29 26 25 25 25 25 25 26 26 25 25 25 25 25 26 26 25 26 26 25 25 25 24 25 27 27 26 26 25
8 7 9 10 12 15 17 19 20 21 22 23 22 21 21 20 20 19 19 19 19 18 18 17 17 19 20 20 19 19 20 20 21 21 22 24 25 26 26 25 26 26 24 22 21 20 21 24 28 31 32 33 33 34 33 33 32 30 28 27 27 28 28 27 27 28 27 28 27 25 25 25 25 24 24 23 23 23 23 25 27 27 25 25 26
8 8 11 12 12 15 19 20 20 21 22 23 22 21 21 20 20 20 20 19 18 17 17 17 17 18 18 18 17 18 18 19 20 20 20 20 22 24 25 26 27 26 25 23 22 21 22 25 28 31 32 33 34 35 34 34 33 31 30 29 28 28 29 29 29 30 29 30 30 27 25 25 25 23 22 22 23 23 22 23 25 27 27 26 26
8 9 12 14 14 16 19 19 19 20 22 23 22 22 22 21 21 21 20 19 19 18 18 17 18 18 17 17 17 17 17 18 19 19 18 17 19 22 25 26 27 27 27 26 24 23 24 26 28 30 32 33 34 35 35 35 33 31 31 31 28 27 28 29 29 30 30 30 29 27 26 26 26 24 22 22 22 23 23 22 22 22 24 24 24
8 9 11 12 13 15 17 17 19 21 22 23 23 22 22 21 20 20 21 21 21 21 20 20 20 20 20 20 20 20 21 21 20 19 17 16 17 19 21 23 25 26 27 27 26 24 25 26 27 28 30 32 33 34 35 36 35 32 30 29 28 27 28 29 29 30 30 28 27 26 25 27 27 25 23 22 22 22 23 22 22 21 21 22 21
9 10 10 10 11 13 16 18 20 21 22 22 21 20 20 19 19 19 20 21 21 21 21 21 21 21 20 20 21 21 22 22 22 21 20 18 17 18 19 21 23 24 25 26 25 24 24 25 26 27 29 32 33 34 36 37 36 33 30 29 28 27 28 28 28 28 27 25 25 26 25 25 26 25 23 22 22 23 23 22 22 22 22 22 21
9 9 9 8 10 12 16 18 20 20 20 20 19 19 19 19 18 18 18 19 19 19 19 18 18 19 18 17 17 18 19 20 21 22 22 20 20 20 20 21 23 25 25 25 25 24 24 24 25 27 29 32 34 35 36 37 37 35 32 30 30 28 28 28 27 27 27 27 27 27 27 27 28 27 25 23 21 20 21 22 23 24 23 22 22
9 8 9 8 8 11 15 18 19 19 20 21 22 22 22 21 19 18 17 17 17 16 16 16 17 18 18 17 16 16 17 18 19 20 21 22 21 21 21 22 23 25 25 25 24 24 24 25 26 27 29 31 35 36 37 37 37 35 33 31 30 29 29 29 29 30 30 29 28 27 27 29 30 28 25 23 24 22 19 19 22 23 24 22 22
9 8 8 8 7 10 14 17 19 21 23 24 25 25 24 23 22 21 21 19 18 18 19 19 19 20 20 18 17 16 17 18 20 20 20 21 22 22 21 22 23 24 24 25 24 24 25 26 27 28 28 31 34 36 37 36 35 34 33 31 30 30 29 29 30 32 33 31 30 29 28 29 31 28 25 23 23 23 22 20 19 20 21 22 22
9 8 7 7 9 12 15 17 20 24 25 25 24 25 24 24 23 24 24 24 23 22 22 21 20 20 20 20 19 17 16 17 18 19 19 19 20 20 20 21 22 22 23 24 24 25 26 26 27 28 28 30 33 35 36 35 34 33 32 31 30 29 29 30 29 30 33 33 32 31 30 31 33 30 28 27 26 24 23 20 19 18 19 20 22
9 8 7 8 10 13 15 18 21 24 25 25 24 25 25 24 24 25 25 25 24 24 24 23 22 20 20 21 21 19 17 16 17 17 18 18 18 18 19 21 21 22 21 22 24 25 26 26 26 27 27 28 31 33 34 36 36 34 32 30 29 28 29 30 30 29 32 33 32 32 32 34 36 34 32 31 30 28 26 23 21 19 19 19 21
9 9 8 8 10 14 16 19 22 25 26 26 26 26 25 25 25 25 25 24 23 24 23 23 22 21 20 21 21 20 20 18 17 17 17 18 19 19 21 22 22 22 22 23 24 24 25 25 25 26 26 27 30 32 33 35 36 36 34 31 29 28 27 28 30 31 33 33 32 31 32 34 36 35 34 34 34 32 30 28 25 21 20 19 20
10 9 9 10 13 17 19 21 24 26 27 27 27 27 26 24 24 24 24 24 23 22 21 21 22 22 22 22 22 22 22 21 20 19 18 18 20 21 23 24 24 25 25 25 25 25 25 25 25 25 26 26 29 31 31 34 36 36 36 34 32 29 26 26 29 30 31 33 32 30 31 34 37 37 36 37 38 37 34 32 29 24 21 19 19
10 9 11 13 17 20 22 24 26 27 28 28 28 27 25 24 23 23 23 23 22 21 20 20 21 21 22 23 23 23 24 23 23 22 21 20 21 21 22 24 25 26 27 27 27 27 26 25 25 25 26 27 29 30 30 32 35 37 37 35 34 32 28 26 28 29 30 32 30 29 30 32 35 36 36 38 39 39 38 36 33 29 24 21 20
10 9 12 16 20 22 23 25 26 28 29 29 28 27 26 23 22 22 23 22 21 19 18 19 19 20 21 22 22 22 22 23 23 23 23 22 20 19 20 21 23 26 27 27 28 27 27 26 25 26 27 28 29 29 30 31 33 36 37 36 34 33 31 29 29 29 30 31 29 27 28 30 32 34 35 36 37 38 38 37 35 32 28 25 22
12 14 16 20 24 26 26 26 26 28 30 30 28 27 25 24 22 22 21 20 19 18 17 17 18 19 19 19 20 20 20 20 21 21 22 21 20 20 20 20 22 25 26 28 28 28 27 27 26 26 27 29 29 30 30 31 33 35 37 36 35 34 33 32 30 29 30 31 29 27 27 29 31 34 35 34 35 35 35 35 34 32 30 27 24
18 21 23 25 28 28 28 27 27 28 31 31 29 27 26 24 22 21 20 19 18 18 17 16 17 17 17 17 18 18 18 18 18 19 20 20 21 21 21 21 23 25 27 28 28 28 27 26 27 27 27 28 30 30 30 30 32 34 36 36 35 34 33 32 30 29 30 31 29 27 27 28 31 34 35 34 33 33 33 33 32 31 29 28 26
22 24 25 27 29 29 29 28 26 27 29 30 28 27 26 24 22 21 20 18 18 17 16 15 15 16 16 16 16 17 17 17 18 18 19 20 21 21 21 22 23 25 27 27 28 29 28 27 27 27 28 28 29 30 30 30 30 32 34 35 34 33 33 32 30 30 31 32 31 29 27 28 32 35 34 33 33 33 32 30 29 28 28 27 26
24 26 27 28 29 29 28 28 26 26 28 30 28 27 26 24 22 20 18 17 17 16 15 14 14 14 14 15 16 16 17 17 17 18 18 19 20 20 21 22 24 26 27 27 28 29 30 29 28 28 28 29 30 30 30 29 29 30 32 34 33 33 33 32 30 29 31 33 33 33 31 30 33 34 33 32 32 32 30 29 26 25 26 28 29
24 27 28 28 29 29 28 27 26 25 27 29 28 27 25 22 20 19 17 16 17 16 15 14 13 13 13 14 15 15 16 17 17 17 17 18 19 20 21 23 25 27 28 28 28 29 29 29 28 28 28 29 30 31 31 29 27 28 30 33 33 33 33 32 29 28 30 33 34 35 35 33 34 34 32 32 32 31 29 28 26 26 26 30 32
26 28 28 29 29 29 27 25 24 24 26 27 27 27 25 22 19 18 16 16 16 16 15 13 12 12 12 12 13 14 15 15 15 16 17 17 18 20 21 23 25 27 28 29 29 28 29 30 29 29 29 29 30 31 31 28 26 27 29 31 32 33 32 32 30 28 29 31 33 35 36 35 34 33 31 32 33 31 30 29 29 28 26 26 27
27 28 28 28 28 27 26 24 24 25 26 25 26 27 25 22 19 17 16 14 14 15 15 13 12 12 11 11 11 12 13 13 13 15 16 17 17 19 21 23 25 27 28 28 29 29 29 30 31 30 30 30 31 33 32 28 25 26 28 29 30 31 31 31 30 30 30 31 32 34 36 35 34 33 31 31 33 33 32 32 30 28 26 22 17
26 27 28 29 27 25 25 25 25 25 24 22 24 26 25 22 19 16 14 13 12 13 13 13 12 11 10 10 9 9 10 11 12 13 15 16 17 18 20 22 24 26 27 27 28 29 29 30 32 32 31 30 31 33 32 29 25 24 26 28 29 30 31 31 30 30 30 31 32 33 34 35 35 34 32 31 33 34 35 35 32 30 29 26 21
25 27 29 29 26 24 25 26 25 24 23 22 23 24 24 21 17 15 14 13 12 11 12 12 12 11 10 9 8 7 7 8 9 11 13 15 16 17 18 20 22 24 26 26 26 27 28 29 30 32 32 31 31 32 32 30 26 24 25 27 29 30 31 31 31 30 30 30 31 33 33 34 35 35 34 33 33 35 36 37 36 35 34 32 29
26 28 29 28 26 24 25 25 24 23 22 21 21 23 23 20 18 17 17 16 15 14 13 12 12 11 10 8 7 6 5 5 7 9 11 14 15 15 16 17 19 22 24 24 24 25 26 28 29 30 32 32 30 30 31 30 28 26 25 26 28 30 31 32 33 32 31 30 31 32 33 35 35 36 36 36 35 35 36 37 38 38 37 36 34
26 27 28 27 25 24 24 24 23 23 22 20 19 20 21 20 19 19 19 17 16 15 14 13 12 11 10 8 7 6 5 4 6 7 9 11 13 14 15 15 17 19 21 22 23 24 25 27 28 30 31 32 31 30 30 29 29 28 27 26 27 29 31 33 33 33 33 32 32 33 34 36 36 36 37 37 36 37 38 38 39 40 38 37 34
27 28 28 27 25 24 23 22 22 22 23 22 20 19 19 19 18 17 15 14 14 13 12 12 12 11 10 9 7 7 6 5 6 6 7 9 11 12 13 14 14 16 19 20 21 22 24 25 27 29 31 32 31 30 29 28 28 28 26 26 27 28 30 34 35 34 34 33 33 34 35 36 37 38 39 39 39 39 39 39 40 40 39 37 35
28 29 29 27 25 23 22 22 22 23 23 22 20 19 19 19 17 14 13 12 12 11 10 11 11 11 11 10 8 7 7 6 6 6 7 8 9 11 12 12 12 13 16 18 18 19 20 21 22 25 29 30 30 30 29 27 26 26 26 26 26 26 29 33 34 34 34 33 33 35 37 38 39 40 41 41 41 40 39 39 39 39 39 38 37
29 29 29 27 25 23 23 23 24 24 24 22 21 20 21 19 17 14 12 12 11 10 10 10 10 10 10 9 9 8 7 6 6 6 7 7 9 10 11 10 10 10 13 15 16 17 18 18 19 21 24 26 27 27 26 25 24 23 24 24 23 23 26 29 30 31 32 33 34 35 36 36 37 37 37 38 38 39 38 39 39 39 39 38 38
29 29 28 27 25 23 23 23 23 23 23 22 21 21 21 19 17 13 11 11 11 11 11 11 10 9 9 8 8 7 6 6 6 6 7 7 8 9 10 9 9 9 10 12 14 15 16 17 18 19 21 22 22 22 22 23 23 23 23 23 21 20 22 24 26 28 30 32 33 33 33 33 33 33 33 34 35 36 36 36 37 38 38 38 37
29 28 27 26 25 23 23 22 20 21 22 21 20 20 19 17 15 12 11 11 10 10 11 12 11 9 8 7 7 6 5 5 5 6 7 6 6 8 9 9 8 8 9 10 12 12 13 14 15 18 20 21 21 22 22 22 23 24 25 23 21 19 20 21 24 26 28 29 30 30 31 32 32 31 31 32 33 34 34 34 35 36 37 37 36
Wind_Direction
103 98 94 93 91 94 98 102 104 100 101 107 104 101 100 101 100 92 91 98 83 62 27 1 343 336 342 350 348 349 354 349 345 347 351 354 350 350 355 348 334 323 315 315 313 308 306 300 295 296 298 297 295 295 295 295 297 296 294 292 292 292 291 292 295 292 285 284 287 285 281 275 266 260 256 250 244 241 238 236 235 236 238 235 233
97 93 95 94 91 94 96 98 102 97 93 100 99 95 94 92 89 83 81 83 73 59 47 32 12 355 351 357 359 7 17 14 13 15 16 17 19 23 21 16 12 7 343 327 326 319 310 299 296 296 296 296 293 292 293 296 297 293 290 291 291 289 289 293 295 288 276 279 287 291 291 283 268 254 251 251 245 243 241 237 237 238 238 235 231
93 91 93 93 91 90 89 87 92 93 90 95 96 92 89 85 80 77 74 73 66 58 51 36 18 0 353 2 17 33 36 32 35 34 32 35 38 36 31 29 29 23 13 1 352 336 318 306 301 298 297 297 297 297 301 304 302 297 293 293 291 287 288 291 290 284 277 281 284 280 288 294 272 245 243 250 247 242 239 235 233 233 234 233 229
95 96 91 91 91 86 82 81 84 87 86 87 91 89 83 77 73 70 67 62 57 53 50 41 23 13 14 23 32 39 34 26 31 34 34 37 41 41 37 35 34 28 26 26 19 3 342 326 317 312 307 305 305 305 305 305 305 302 300 297 291 285 284 287 287 282 277 276 270 250 263 260 268 236 232 247 246 238 234 231 231 230 231 231 228
100 98 90 93 97 92 84 83 81 80 80 80 85 85 80 73 66 63 59 54 49 44 41 35 19 13 11 6 8 15 15 13 16 24 31 36 40 43 42 42 44 42 40 38 30 20 5 347 335 328 323 317 313 311 308 308 307 304 300 297 291 283 279 281 285 283 277 271 257 246 262 257 269 254 235 252 242 232 231 230 230 230 231 231 229
95 90 97 103 100 97 92 88 84 77 77 81 84 83 78 72 63 58 54 46 42 36 31 30 27 25 22 18 19 23 26 26 25 25 27 32 35 39 41 42 42 43 44 42 34 26 17 5 357 347 337 330 322 317 315 314 310 307 304 298 292 286 282 280 282 284 280 276 265 257 258 257 264 281 289 282 243 231 231 230 231 232 232 230 227
92 88 103 103 91 92 91 90 89 84 83 85 84 80 75 69 63 58 55 46 39 33 27 30 37 41 41 40 38 38 34 29 26 23 21 24 28 30 33 33 32 32 35 38 35 29 25 17 9 1 350 342 333 325 324 324 320 317 313 304 299 294 287 280 279 282 279 276 272 266 263 261 262 263 257 274 274 238 230 227 230 232 230 228 226
96 93 94 88 84 88 90 89 90 89 88 84 78 76 71 64 59 53 51 47 38 33 31 35 44 48 50 46 40 39 35 24 16 9 6 7 12 16 20 23 25 24 24 26 27 25 23 19 13 8 358 346 336 329 327 328 326 322 319 312 306 300 293 285 280 279 274 274 276 270 265 263 262 260 255 254 265 271 237 223 227 229 228 227 225
92 94 90 86 86 90 93 93 92 91 88 83 77 77 70 58 50 44 44 41 33 30 31 41 53 59 62 58 49 43 35 22 10 1 355 353 354 357 359 3 10 14 15 16 16 16 17 16 13 10 5 355 344 336 332 330 327 324 322 315 308 301 296 289 281 277 275 276 279 272 267 264 260 258 255 249 244 254 254 222 220 223 226 227 224
91 96 95 93 96 96 97 98 98 100 96 89 85 80 69 58 53 49 44 39 34 33 34 41 50 57 65 67 59 49 36 21 9 1 354 348 344 344 344 346 353 359 2 6 8 8 8 9 9 6 3 359 352 345 338 334 331 327 325 318 309 301 293 288 282 282 282 280 277 272 269 266 258 255 251 244 239 241 246 244 220 211 219 226 226
100 104 98 96 99 97 98 100 101 106 99 91 86 78 70 63 60 56 49 40 34 34 40 50 55 60 67 69 62 52 41 29 19 11 3 354 346 340 339 341 347 350 351 355 360 1 358 359 360 355 350 347 344 341 336 333 329 323 320 317 310 303 296 289 283 282 282 279 276 271 267 265 260 253 249 243 236 233 238 245 230 222 223 226 228
111 114 106 102 102 98 100 103 105 103 94 90 87 79 73 67 62 60 55 47 41 38 44 59 68 71 72 70 65 57 47 39 33 28 19 10 360 347 339 339 341 343 348 353 355 355 352 349 349 348 346 343 337 333 329 325 322 315 311 310 308 305 299 292 284 281 283 282 279 274 271 270 265 259 257 251 243 240 238 238 237 232 230 233 233
120 117 111 108 111 112 112 112 106 92 91 99 96 84 79 76 72 73 68 60 53 50 53 62 69 71 72 71 65 59 52 46 41 37 30 23 21 15 7 2 358 358 4 5 359 358 359 356 355 355 354 349 342 335 331 327 324 318 312 309 307 304 300 294 289 287 288 285 282 280 277 274 269 264 262 257 251 245 240 240 240 232 227 233 233
119 116 116 118 123 126 126 120 105 88 97 110 102 89 89 93 93 90 82 71 65 63 63 64 65 66 67 66 62 58 54 50 47 40 33 29 33 37 32 26 23 20 19 16 10 11 14 11 6 2 359 355 349 344 340 336 330 324 317 313 311 309 305 299 293 291 289 286 283 282 280 274 272 269 264 259 253 245 238 239 242 231 222 220 221
115 118 121 122 128 134 130 115 96 93 104 108 96 87 96 107 105 99 90 81 74 71 68 65 65 66 66 65 63 61 58 56 53 46 38 36 37 42 40 35 31 28 25 25 24 20 18 17 14 9 5 360 355 352 350 346 341 336 329 321 315 314 311 305 299 295 292 289 287 286 284 278 276 274 269 263 256 248 241 238 236 230 219 214 212
124 128 123 119 123 124 112 96 91 102 107 95 85 90 107 113 109 103 96 88 78 72 67 63 65 67 66 67 64 60 58 55 53 49 47 46 44 44 44 40 37 35 31 33 35 21 13 16 16 14 13 7 0 357 355 353 351 349 343 334 325 320 315 309 306 302 297 294 291 289 286 282 281 279 274 268 261 254 247 240 232 224 221 219 211
131 129 117 109 107 101 94 94 100 105 97 83 84 99 113 114 111 109 100 88 78 74 73 69 68 68 67 67 63 59 57 54 51 49 48 50 50 48 46 45 42 38 34 37 38 21 12 15 16 16 17 12 6 3 360 358 355 352 347 341 337 331 321 311 307 306 305 301 295 289 284 281 284 284 277 270 263 255 250 245 234 224 221 218 209
122 109 103 102 103 99 97 100 102 99 91 88 93 101 107 107 108 106 97 89 87 85 83 77 72 70 68 66 65 62 58 54 50 49 49 50 50 48 47 45 42 39 37 38 35 20 14 17 19 18 15 12 9 6 3 360 355 349 344 341 340 337 330 323 316 312 310 309 305 297 287 281 283 283 278 270 264 258 253 246 236 227 223 222 217
112 105 103 104 106 103 99 99 98 97 97 99 99 99 100 100 100 99 96 94 95 93 89 82 75 72 67 64 65 65 61 56 51 50 50 50 48 47 45 43 41 40 39 39 37 29 23 22 21 19 16 14 10 6 3 360 356 348 341 338 338 336 333 331 328 322 316 314 312 307 298 291 287 283 277 270 265 261 254 244 236 228 223 222 222
118 114 111 106 105 100 97 99 98 98 101 103 102 99 99 98 97 97 96 96 96 95 92 85 77 71 66 65 66 64 62 58 54 51 50 49 47 46 44 40 39 39 38 36 36 34 28 24 23 21 18 15 12 9 6 2 358 352 345 341 339 337 335 332 330 326 322 318 314 311 307 299 293 286 278 270 266 262 252 241 236 230 221 221 222
125 119 114 109 105 97 95 100 101 100 102 105 104 101 100 99 97 96 95 94 93 92 92 86 79 73 68 67 65 63 60 57 54 51 48 47 45 44 43 39 38 37 35 33 31 30 25 22 22 21 18 16 13 11 8 5 0 355 351 347 343 341 339 337 335 331 328 326 320 313 310 306 301 292 281 273 268 264 253 240 237 232 223 220 220
127 119 113 111 108 100 97 101 102 100 102 105 104 102 101 99 98 97 94 92 90 91 91 87 81 75 70 67 65 62 59 56 54 50 47 45 42 41 38 36 36 35 34 35 33 30 25 21 21 20 18 17 14 11 8 5 3 358 353 350 348 346 343 341 340 338 335 334 329 319 312 311 308 298 286 277 272 269 259 244 237 233 228 223 220
118 113 112 112 110 105 100 99 100 101 104 106 104 102 101 99 98 96 91 89 89 90 90 86 81 77 73 70 67 64 61 57 55 53 49 46 43 40 37 37 37 36 35 37 37 34 28 23 21 20 19 18 15 12 9 6 4 1 355 352 350 349 347 344 342 340 339 337 333 326 319 316 310 300 293 287 278 271 265 253 241 233 227 224 222
116 115 113 112 110 105 101 99 101 105 107 106 105 104 103 101 100 96 90 87 88 88 87 85 82 80 77 74 71 68 65 61 58 57 55 53 47 43 41 40 40 39 38 39 39 35 30 24 22 21 19 18 16 13 9 7 6 4 359 355 353 350 349 347 343 342 342 339 334 328 324 324 316 302 294 291 283 273 268 264 258 245 232 226 224
125 122 115 113 112 108 105 104 107 110 110 109 110 109 106 104 102 99 95 92 91 91 89 87 85 82 80 78 76 74 70 66 63 61 61 62 57 49 44 41 40 40 40 40 39 35 30 26 23 21 19 18 16 13 10 8 8 7 4 0 357 355 352 350 347 347 347 344 340 337 333 333 327 312 297 289 283 276 271 267 264 260 251 241 232
130 124 118 119 119 115 111 111 115 117 116 114 113 111 109 107 106 105 103 99 96 94 91 88 85 82 80 79 79 77 73 70 68 65 64 65 64 59 51 45 42 42 41 41 40 36 31 27 24 22 20 18 17 15 12 10 8 8 8 6 4 360 356 352 348 348 349 346 346 348 347 346 343 334 320 306 292 281 274 267 261 258 254 248 240
128 122 120 122 122 119 115 115 119 119 115 112 110 111 112 111 110 111 109 105 101 98 93 87 82 79 78 80 81 79 76 73 70 68 66 65 64 61 56 50 45 43 42 40 38 36 32 28 25 23 21 19 18 16 14 13 11 8 8 8 7 4 359 355 352 349 350 351 351 352 354 355 354 350 344 337 327 310 288 274 265 258 251 244 239
125 123 127 126 123 121 116 116 119 116 110 109 109 110 111 109 109 110 110 110 107 101 93 87 83 81 79 81 86 87 82 77 74 71 68 65 62 57 53 49 44 42 40 37 35 33 30 27 25 23 21 19 19 17 14 13 11 10 9 8 8 6 1 357 356 354 354 353 352 352 353 355 355 353 348 345 346 343 326 300 279 264 252 243 238
125 128 132 129 127 124 118 116 116 112 111 112 111 110 109 105 103 104 105 107 107 101 95 91 87 83 81 83 89 93 89 80 74 71 70 67 62 57 53 47 43 41 38 35 34 31 28 26 24 23 20 18 18 17 15 14 12 11 10 8 8 7 3 358 356 356 357 355 352 351 351 352 354 352 347 343 340 342 342 329 307 285 264 249 241
128 132 132 129 129 126 119 116 116 115 116 115 112 111 109 105 102 102 103 105 104 99 93 89 85 83 83 85 88 93 93 84 74 69 66 63 60 57 52 45 40 37 34 31 30 29 27 25 23 21 20 18 17 15 15 16 15 13 12 9 8 7 6 4 360 355 356 356 353 353 352 353 355 352 347 344 339 335 336 333 321 305 286 264 248
129 132 129 129 130 125 119 117 120 121 121 119 116 114 111 106 103 105 106 105 102 97 93 87 83 84 86 86 86 88 88 82 74 66 60 57 56 56 50 43 37 34 30 27 26 26 25 23 22 21 19 17 15 13 13 16 17 16 14 11 8 5 5 6 3 359 358 356 353 353 352 354 357 355 349 344 340 335 332 329 320 307 294 278 258
132 132 131 132 132 126 122 122 125 126 126 124 121 117 113 109 108 109 110 106 101 99 97 91 85 84 86 87 85 83 79 73 68 65 62 60 60 57 50 44 40 35 32 29 27 25 24 22 22 21 19 17 15 12 11 14 15 17 16 14 9 5 2 3 3 2 1 358 355 352 350 352 355 355 352 347 342 337 332 329 325 311 296 285 271
135 134 133 134 134 130 127 128 129 130 130 127 123 121 118 114 113 114 113 108 104 103 102 98 92 88 88 88 87 82 76 71 68 67 67 67 64 59 52 47 43 39 36 33 30 27 25 24 23 22 20 18 15 13 11 12 13 15 17 16 12 7 3 0 360 360 359 358 356 352 348 349 352 355 355 352 346 340 334 330 327 319 305 293 283
136 135 134 134 132 130 129 130 131 133 133 130 125 123 121 120 119 118 117 113 110 109 108 104 99 94 92 91 88 85 80 75 73 71 70 68 65 60 54 47 43 39 35 32 29 26 25 25 24 24 22 20 17 14 12 11 12 13 16 16 14 11 8 3 360 358 356 355 356 353 348 346 349 352 354 352 347 343 338 334 330 326 317 304 293
140 138 137 135 133 131 132 132 132 134 136 133 128 126 125 125 124 122 120 118 115 115 114 110 104 98 95 93 90 88 83 79 76 73 71 69 65 59 52 45 40 37 34 31 28 25 24 25 25 24 23 22 20 17 14 12 11 12 15 16 13 11 11 7 3 360 356 354 354 351 348 345 346 348 351 351 348 343 340 337 334 329 324 315 302
145 142 140 138 137 136 136 135 133 134 137 136 132 130 129 130 128 125 123 122 121 121 120 115 109 101 96 95 92 90 86 81 77 73 70 67 63 58 52 46 42 38 34 32 29 27 25 25 25 24 23 22 22 20 17 14 11 11 14 15 12 10 10 7 4 0 356 355 354 350 347 346 346 348 349 351 351 345 340 339 336 330 326 320 310
142 142 141 140 138 137 137 137 133 133 138 139 136 133 133 134 132 130 129 128 126 126 124 120 114 105 99 98 96 93 89 84 79 74 70 66 62 58 54 49 44 39 35 32 30 29 28 26 26 25 22 21 22 21 19 16 13 12 14 14 12 9 7 4 2 360 356 355 354 351 348 347 348 349 350 352 353 349 344 342 337 331 328 323 318
139 139 139 138 138 137 138 138 134 133 140 144 141 138 138 138 138 136 135 133 130 128 127 126 121 111 103 100 98 96 92 87 82 76 72 67 62 58 54 50 46 41 37 35 33 32 31 29 27 26 22 21 21 21 20 18 15 14 15 15 12 8 5 1 359 357 356 356 355 353 353 351 349 350 352 354 356 354 350 346 339 332 328 322 319
139 139 139 139 138 137 137 137 134 133 141 148 148 142 141 142 143 142 140 137 133 131 131 132 130 121 109 101 99 97 93 88 83 78 73 67 62 58 54 50 47 43 39 37 36 35 33 30 28 26 24 22 21 21 21 19 17 16 17 16 13 8 4 1 358 354 353 355 356 355 356 356 352 352 356 358 359 359 356 350 343 335 326 319 317
139 139 139 138 138 138 137 137 135 134 142 150 151 146 144 146 147 145 145 141 136 134 133 134 136 132 118 105 99 96 92 88 84 79 74 68 61 56 52 49 46 43 40 38 37 35 32 30 27 25 24 22 19 19 21 21 19 18 18 16 14 9 4 1 358 353 351 352 354 355 357 357 355 356 359 2 3 4 2 357 351 343 331 322 317
141 140 138 137 139 139 138 139 140 138 140 146 152 151 148 148 149 148 146 144 140 138 136 135 138 138 129 112 101 95 90 87 84 79 74 67 60 54 50 48 45 41 39 37 36 34 31 29 27 26 25 23 20 18 19 20 21 21 20 17 15 11 6 2 359 356 354 353 353 354 356 357 358 358 1 5 7 8 9 6 0 354 345 331 318
142 141 139 138 138 138 138 140 144 143 139 140 148 153 153 152 152 150 147 148 147 145 141 139 139 140 133 120 106 97 90 87 83 77 71 66 59 52 48 46 43 40 38 36 35 32 30 27 27 27 26 25 23 20 18 19 20 21 21 18 15 13 10 7 4 1 359 357 355 355 357 359 0 2 5 9 11 12 15 12 9 9 7 356 342
144 143 142 140 137 138 140 141 143 144 141 137 142 151 155 155 153 153 155 157 155 152 149 146 143 141 135 126 116 104 93 85 79 73 68 63 57 50 46 43 41 38 37 35 34 32 29 26 25 26 26 25 22 20 19 18 17 18 20 20 17 15 14 13 9 5 2 360 359 359 0 2 5 7 9 11 14 16 18 17 17 22 24 21 21
146 145 144 141 138 139 143 144 145 145 142 139 141 148 154 155 156 160 162 157 151 152 155 154 150 148 143 134 126 114 98 85 77 69 63 59 54 48 45 42 39 37 35 34 33 31 29 26 22 21 23 22 20 19 18 17 15 13 17 19 17 17 17 16 13 9 6 4 3 4 6 9 11 11 12 14 17 19 21 22 23 27 32 33 34
148 148 147 143 140 141 144 145 146 147 145 143 143 146 150 150 149 149 145 138 132 130 135 148 159 162 156 143 129 119 105 90 78 65 59 57 51 46 43 40 38 36 34 32 32 30 28 26 22 19 18 17 16 16 17 18 16 12 14 17 17 18 19 18 14 12 11 11 10 11 13 15 15 15 15 17 18 19 22 26 28 29 32 34 34
149 151 149 145 140 142 144 144 146 150 151 150 148 148 148 145 140 135 132 130 126 119 119 133 150 162 165 154 130 118 112 95 77 64 59 56 48 43 41 38 35 35 32 30 29 29 27 24 20 17 15 13 12 13 14 17 16 13 13 17 18 19 22 22 19 17 17 17 16 17 18 18 17 17 19 19 18 19 23 28 30 30 31 32 31
153 154 153 148 143 141 142 144 148 153 155 154 153 151 148 142 135 132 133 134 130 123 121 125 130 141 152 148 129 118 114 97 79 67 62 58 49 42 38 34 32 32 30 28 27 26 25 22 18 15 12 10 9 11 13 16 17 14 14 16 17 18 23 24 23 21 20 20 19 20 21 22 21 21 22 22 21 21 23 25 27 30 31 32 33
155 155 154 152 147 142 141 146 151 155 157 159 159 156 151 145 139 141 146 143 137 134 132 128 124 128 134 135 129 121 110 97 86 75 68 62 53 44 37 31 30 29 27 26 24 23 23 20 16 13 11 8 8 10 12 15 17 16 15 14 14 17 24 26 24 22 22 22 22 23 23 22 22 22 21 20 20 19 20 22 25 28 31 33 36
156 155 156 155 151 145 145 150 154 154 155 158 159 159 158 154 150 152 155 153 150 150 147 139 130 127 128 128 125 118 104 94 90 82 75 69 59 49 39 30 26 28 28 26 23 22 22 20 19 17 12 7 7 10 13 15 17 17 16 14 14 18 24 26 24 22 23 23 23 23 22 20 20 19 18 17 16 16 18 20 22 26 30 32 34
155 155 157 157 155 151 148 152 156 156 154 154 154 156 159 158 154 154 158 159 158 156 155 150 139 132 133 129 121 115 104 93 89 83 76 73 66 54 44 34 26 27 29 27 25 23 20 17 18 20 19 14 10 11 14 15 17 18 18 18 18 21 24 24 22 21 23 24 23 21 20 18 17 17 16 15 14 14 15 17 20 24 28 30 32
155 156 157 157 158 155 150 150 157 160 158 157 157 158 159 159 159 163 166 164 159 157 159 157 149 145 146 137 122 116 110 100 93 86 77 69 64 57 48 38 31 28 30 30 27 23 20 17 14 15 19 21 19 17 16 15 15 17 18 19 20 21 21 23 23 21 20 20 20 19 18 18 18 17 16 15 15 16 16 16 18 22 25 28 30